Year,Month,Day,Hour,Minute,Value (Times are PST for temperature in C)
2015,04,19,00,00,9.90
2015,04,19,00,01,9.90
2015,04,19,00,02,9.80
2015,04,19,00,03,9.80
2015,04,19,00,04,9.80
2015,04,19,00,05,9.80
2015,04,19,00,06,9.80
2015,04,19,00,07,9.80
2015,04,19,00,08,9.80
2015,04,19,00,09,9.80
2015,04,19,00,10,9.80
2015,04,19,00,11,9.70
2015,04,19,00,12,9.70
2015,04,19,00,13,9.70
2015,04,19,00,14,9.70
2015,04,19,00,15,9.80
2015,04,19,00,16,9.80
2015,04,19,00,17,9.80
2015,04,19,00,18,9.80
2015,04,19,00,19,9.80
2015,04,19,00,20,9.80
2015,04,19,00,21,9.70
2015,04,19,00,22,9.70
2015,04,19,00,23,9.70
2015,04,19,00,24,9.70
2015,04,19,00,25,9.70
2015,04,19,00,26,9.70
2015,04,19,00,27,9.70
2015,04,19,00,28,9.80
2015,04,19,00,29,9.80
2015,04,19,00,30,9.80
2015,04,19,00,31,9.90
2015,04,19,00,32,9.90
2015,04,19,00,33,9.80
2015,04,19,00,34,9.80
2015,04,19,00,35,9.80
2015,04,19,00,36,9.80
2015,04,19,00,37,9.70
2015,04,19,00,38,9.70
2015,04,19,00,39,9.70
2015,04,19,00,40,9.70
2015,04,19,00,41,9.70
2015,04,19,00,42,9.70
2015,04,19,00,43,9.70
2015,04,19,00,44,9.70
2015,04,19,00,45,9.70
2015,04,19,00,46,9.70
2015,04,19,00,47,9.70
2015,04,19,00,48,9.80
2015,04,19,00,49,9.80
2015,04,19,00,50,9.80
2015,04,19,00,51,9.80
2015,04,19,00,52,9.80
2015,04,19,00,53,9.80
2015,04,19,00,54,9.80
2015,04,19,00,55,9.70
2015,04,19,00,56,9.70
2015,04,19,00,57,9.70
2015,04,19,00,58,9.70
2015,04,19,00,59,9.70
2015,04,19,01,00,9.70
2015,04,19,01,01,9.70
2015,04,19,01,02,9.70
2015,04,19,01,03,9.70
2015,04,19,01,04,9.60
2015,04,19,01,05,9.60
2015,04,19,01,06,9.60
2015,04,19,01,07,9.50
2015,04,19,01,08,9.50
2015,04,19,01,09,9.50
2015,04,19,01,10,9.50
2015,04,19,01,11,9.50
2015,04,19,01,12,9.40
2015,04,19,01,13,9.40
2015,04,19,01,14,9.40
2015,04,19,01,15,9.30
2015,04,19,01,16,9.30
2015,04,19,01,17,9.30
2015,04,19,01,18,9.30
2015,04,19,01,19,9.30
2015,04,19,01,20,9.30
2015,04,19,01,21,9.30
2015,04,19,01,22,9.40
2015,04,19,01,23,9.40
2015,04,19,01,24,9.30
2015,04,19,01,25,9.40
2015,04,19,01,26,9.40
2015,04,19,01,27,9.40
2015,04,19,01,28,9.40
2015,04,19,01,29,9.40
2015,04,19,01,30,9.40
2015,04,19,01,31,9.40
2015,04,19,01,32,9.40
2015,04,19,01,33,9.30
2015,04,19,01,34,9.30
2015,04,19,01,35,9.30
2015,04,19,01,36,9.30
2015,04,19,01,37,9.30
2015,04,19,01,38,9.40
2015,04,19,01,39,9.40
2015,04,19,01,40,9.40
2015,04,19,01,41,9.40
2015,04,19,01,42,9.40
2015,04,19,01,43,9.40
2015,04,19,01,44,9.40
2015,04,19,01,45,9.40
2015,04,19,01,46,9.40
2015,04,19,01,47,9.40
2015,04,19,01,48,9.30
2015,04,19,01,49,9.30
2015,04,19,01,50,9.30
2015,04,19,01,51,9.40
2015,04,19,01,52,9.40
2015,04,19,01,53,9.40
2015,04,19,01,54,9.40
2015,04,19,01,55,9.40
2015,04,19,01,56,9.40
2015,04,19,01,57,9.40
2015,04,19,01,58,9.30
2015,04,19,01,59,9.30
2015,04,19,02,00,9.30
2015,04,19,02,01,9.30
2015,04,19,02,02,9.30
2015,04,19,02,03,9.30
2015,04,19,02,04,9.30
2015,04,19,02,05,9.30
2015,04,19,02,06,9.30
2015,04,19,02,07,9.30
2015,04,19,02,08,9.30
2015,04,19,02,09,9.30
2015,04,19,02,10,9.20
2015,04,19,02,11,9.20
2015,04,19,02,12,9.20
2015,04,19,02,13,9.20
2015,04,19,02,14,9.20
2015,04,19,02,15,9.20
2015,04,19,02,16,9.20
2015,04,19,02,17,9.20
2015,04,19,02,18,9.20
2015,04,19,02,19,9.20
2015,04,19,02,20,9.10
2015,04,19,02,21,9.10
2015,04,19,02,22,9.10
2015,04,19,02,23,9.10
2015,04,19,02,24,9.10
2015,04,19,02,25,9.10
2015,04,19,02,26,9.10
2015,04,19,02,27,9.00
2015,04,19,02,28,9.00
2015,04,19,02,29,9.10
2015,04,19,02,30,9.10
2015,04,19,02,31,9.10
2015,04,19,02,32,9.20
2015,04,19,02,33,9.20
2015,04,19,02,34,9.20
2015,04,19,02,35,9.20
2015,04,19,02,36,9.20
2015,04,19,02,37,9.20
2015,04,19,02,42,9.20
2015,04,19,02,43,9.20
2015,04,19,02,44,9.20
2015,04,19,02,45,9.20
2015,04,19,02,46,9.20
2015,04,19,02,47,9.20
2015,04,19,02,48,9.20
2015,04,19,02,49,9.20
2015,04,19,02,50,9.20
2015,04,19,02,51,9.20
2015,04,19,02,52,9.20
2015,04,19,02,53,9.20
2015,04,19,02,54,9.20
2015,04,19,02,55,9.20
2015,04,19,02,56,9.20
2015,04,19,02,57,9.20
2015,04,19,02,58,9.10
2015,04,19,02,59,9.10
2015,04,19,03,00,9.10
2015,04,19,03,01,9.10
2015,04,19,03,02,9.10
2015,04,19,03,03,9.10
2015,04,19,03,04,9.20
2015,04,19,03,05,9.20
2015,04,19,03,06,9.20
2015,04,19,03,07,9.20
2015,04,19,03,08,9.20
2015,04,19,03,09,9.20
2015,04,19,03,10,9.20
2015,04,19,03,11,9.20
2015,04,19,03,12,9.20
2015,04,19,03,13,9.20
2015,04,19,03,14,9.20
2015,04,19,03,15,9.20
2015,04,19,03,16,9.20
2015,04,19,03,17,9.30
2015,04,19,03,18,9.30
2015,04,19,03,19,9.30
2015,04,19,03,20,9.40
2015,04,19,03,21,9.40
2015,04,19,03,22,9.30
2015,04,19,03,23,9.30
2015,04,19,03,24,9.30
2015,04,19,03,25,9.30
2015,04,19,03,26,9.30
2015,04,19,03,27,9.30
2015,04,19,03,28,9.30
2015,04,19,03,29,9.30
2015,04,19,03,30,9.20
2015,04,19,03,31,9.20
2015,04,19,03,32,9.20
2015,04,19,03,33,9.20
2015,04,19,03,34,9.20
2015,04,19,03,35,9.20
2015,04,19,03,36,9.20
2015,04,19,03,37,9.30
2015,04,19,03,38,9.30
2015,04,19,03,39,9.20
2015,04,19,03,40,9.20
2015,04,19,03,41,9.30
2015,04,19,03,42,9.20
2015,04,19,03,43,9.20
2015,04,19,03,44,9.20
2015,04,19,03,45,9.20
2015,04,19,03,46,9.20
2015,04,19,03,47,9.20
2015,04,19,03,48,9.20
2015,04,19,03,49,9.20
2015,04,19,03,50,9.20
2015,04,19,03,51,9.20
2015,04,19,03,52,9.20
2015,04,19,03,53,9.10
2015,04,19,03,54,9.10
2015,04,19,03,55,9.10
2015,04,19,03,56,9.00
2015,04,19,03,57,9.00
2015,04,19,03,58,8.90
2015,04,19,03,59,8.90
2015,04,19,04,00,8.90
2015,04,19,04,01,8.90
2015,04,19,04,02,8.90
2015,04,19,04,03,8.90
2015,04,19,04,04,9.00
2015,04,19,04,05,9.10
2015,04,19,04,06,9.10
2015,04,19,04,07,9.10
2015,04,19,04,08,9.10
2015,04,19,04,09,9.10
2015,04,19,04,10,9.00
2015,04,19,04,11,9.00
2015,04,19,04,12,9.00
2015,04,19,04,13,8.90
2015,04,19,04,14,8.90
2015,04,19,04,15,8.80
2015,04,19,04,16,8.80
2015,04,19,04,17,8.70
2015,04,19,04,18,8.70
2015,04,19,04,19,8.70
2015,04,19,04,20,8.70
2015,04,19,04,21,8.80
2015,04,19,04,22,8.80
2015,04,19,04,23,8.80
2015,04,19,04,24,8.80
2015,04,19,04,25,8.80
2015,04,19,04,26,8.80
2015,04,19,04,27,8.80
2015,04,19,04,28,8.80
2015,04,19,04,29,8.80
2015,04,19,04,30,8.80
2015,04,19,04,31,8.80
2015,04,19,04,32,8.90
2015,04,19,04,33,8.90
2015,04,19,04,34,8.90
2015,04,19,04,35,8.90
2015,04,19,04,36,8.90
2015,04,19,04,37,8.90
2015,04,19,04,38,8.90
2015,04,19,04,39,8.90
2015,04,19,04,40,8.90
2015,04,19,04,41,8.90
2015,04,19,04,42,8.90
2015,04,19,04,43,8.90
2015,04,19,04,44,9.00
2015,04,19,04,45,9.00
2015,04,19,04,46,9.00
2015,04,19,04,47,9.00
2015,04,19,04,48,8.90
2015,04,19,04,49,9.00
2015,04,19,04,50,9.00
2015,04,19,04,51,9.00
2015,04,19,04,52,9.00
2015,04,19,04,53,8.90
2015,04,19,04,54,8.90
2015,04,19,04,55,8.80
2015,04,19,04,56,8.80
2015,04,19,04,57,8.80
2015,04,19,04,58,8.80
2015,04,19,04,59,8.80
2015,04,19,05,00,8.70
2015,04,19,05,01,8.60
2015,04,19,05,02,8.50
2015,04,19,05,03,8.30
2015,04,19,05,04,8.20
2015,04,19,05,05,8.20
2015,04,19,05,06,8.10
2015,04,19,05,07,8.00
2015,04,19,05,08,7.90
2015,04,19,05,09,7.90
2015,04,19,05,10,7.80
2015,04,19,05,11,7.80
2015,04,19,05,12,7.70
2015,04,19,05,13,7.60
2015,04,19,05,14,7.60
2015,04,19,05,15,7.50
2015,04,19,05,16,7.40
2015,04,19,05,17,7.40
2015,04,19,05,18,7.40
2015,04,19,05,19,7.30
2015,04,19,05,20,7.30
2015,04,19,05,21,7.30
2015,04,19,05,22,7.30
2015,04,19,05,23,7.30
2015,04,19,05,24,7.30
2015,04,19,05,25,7.30
2015,04,19,05,26,7.40
2015,04,19,05,27,7.60
2015,04,19,05,28,7.80
2015,04,19,05,29,7.90
2015,04,19,05,30,8.00
2015,04,19,05,31,8.00
2015,04,19,05,32,8.10
2015,04,19,05,33,8.20
2015,04,19,05,34,8.30
2015,04,19,05,35,8.30
2015,04,19,05,36,8.40
2015,04,19,05,37,8.50
2015,04,19,05,38,8.60
2015,04,19,05,39,8.60
2015,04,19,05,40,8.70
2015,04,19,05,41,8.80
2015,04,19,05,42,8.90
2015,04,19,05,43,9.00
2015,04,19,05,44,9.10
2015,04,19,05,45,9.10
2015,04,19,05,46,9.20
2015,04,19,05,47,9.20
2015,04,19,05,48,9.20
2015,04,19,05,49,9.20
2015,04,19,05,50,9.10
2015,04,19,05,51,9.10
2015,04,19,05,52,9.00
2015,04,19,05,53,9.00
2015,04,19,05,54,9.00
2015,04,19,05,55,8.90
2015,04,19,05,56,8.90
2015,04,19,05,57,8.90
2015,04,19,05,58,8.90
2015,04,19,05,59,9.00
2015,04,19,06,00,9.10
2015,04,19,06,01,9.10
2015,04,19,06,02,9.10
2015,04,19,06,03,9.10
2015,04,19,06,04,9.10
2015,04,19,06,05,9.20
2015,04,19,06,06,9.10
2015,04,19,06,07,9.10
2015,04,19,06,08,9.00
2015,04,19,06,09,9.00
2015,04,19,06,10,9.10
2015,04,19,06,11,9.10
2015,04,19,06,12,9.20
2015,04,19,06,13,9.20
2015,04,19,06,14,9.20
2015,04,19,06,15,9.20
2015,04,19,06,16,9.20
2015,04,19,06,17,9.20
2015,04,19,06,18,9.20
2015,04,19,06,19,9.20
2015,04,19,06,20,9.20
2015,04,19,06,21,9.20
2015,04,19,06,22,9.20
2015,04,19,06,23,9.20
2015,04,19,06,24,9.20
2015,04,19,06,25,9.10
2015,04,19,06,26,9.10
2015,04,19,06,27,9.20
2015,04,19,06,28,9.20
2015,04,19,06,29,9.20
2015,04,19,06,30,9.20
2015,04,19,06,31,9.10
2015,04,19,06,32,9.10
2015,04,19,06,33,9.00
2015,04,19,06,34,9.00
2015,04,19,06,35,8.90
2015,04,19,06,36,8.80
2015,04,19,06,37,8.80
2015,04,19,06,38,8.80
2015,04,19,06,39,8.70
2015,04,19,06,40,8.70
2015,04,19,06,41,8.60
2015,04,19,06,42,8.60
2015,04,19,06,43,8.50
2015,04,19,06,44,8.40
2015,04,19,06,45,8.40
2015,04,19,06,46,8.30
2015,04,19,06,47,8.20
2015,04,19,06,48,8.20
2015,04,19,06,49,8.10
2015,04,19,06,50,8.10
2015,04,19,06,51,8.00
2015,04,19,06,52,8.00
2015,04,19,06,53,8.00
2015,04,19,06,54,8.00
2015,04,19,06,55,8.00
2015,04,19,06,56,8.00
2015,04,19,06,57,8.00
2015,04,19,06,58,8.10
2015,04,19,06,59,8.20
2015,04,19,07,00,8.20
2015,04,19,07,01,8.10
2015,04,19,07,02,8.10
2015,04,19,07,03,8.00
2015,04,19,07,04,8.00
2015,04,19,07,05,7.90
2015,04,19,07,06,7.80
2015,04,19,07,07,7.80
2015,04,19,07,08,7.80
2015,04,19,07,09,7.80
2015,04,19,07,10,7.90
2015,04,19,07,11,8.00
2015,04,19,07,12,8.10
2015,04,19,07,13,8.10
2015,04,19,07,14,8.10
2015,04,19,07,15,8.20
2015,04,19,07,16,8.10
2015,04,19,07,17,8.10
2015,04,19,07,18,8.10
2015,04,19,07,19,8.00
2015,04,19,07,20,7.90
2015,04,19,07,21,7.80
2015,04,19,07,22,7.70
2015,04,19,07,23,7.50
2015,04,19,07,24,7.40
2015,04,19,07,25,7.50
2015,04,19,07,26,7.60
2015,04,19,07,27,7.60
2015,04,19,07,28,7.60
2015,04,19,07,29,7.50
2015,04,19,07,30,7.50
2015,04,19,07,31,7.40
2015,04,19,07,32,7.30
2015,04,19,07,33,7.20
2015,04,19,07,34,7.10
2015,04,19,07,35,7.10
2015,04,19,07,36,7.10
2015,04,19,07,37,7.20
2015,04,19,07,38,7.30
2015,04,19,07,39,7.30
2015,04,19,07,40,7.30
2015,04,19,07,41,7.30
2015,04,19,07,42,7.30
2015,04,19,07,43,7.20
2015,04,19,07,44,7.10
2015,04,19,07,45,7.10
2015,04,19,07,46,7.00
2015,04,19,07,47,7.00
2015,04,19,07,48,6.90
2015,04,19,07,49,6.90
2015,04,19,07,50,6.80
2015,04,19,07,51,6.80
2015,04,19,07,52,6.80
2015,04,19,07,53,6.80
2015,04,19,07,54,6.80
2015,04,19,07,55,6.90
2015,04,19,07,56,6.90
2015,04,19,07,57,7.00
2015,04,19,07,58,7.00
2015,04,19,07,59,7.10
2015,04,19,08,00,7.20
2015,04,19,08,01,7.30
2015,04,19,08,02,7.30
2015,04,19,08,03,7.30
2015,04,19,08,04,7.40
2015,04,19,08,05,7.50
2015,04,19,08,06,7.50
2015,04,19,08,07,7.60
2015,04,19,08,08,7.60
2015,04,19,08,09,7.70
2015,04,19,08,10,7.70
2015,04,19,08,11,7.80
2015,04,19,08,12,7.90
2015,04,19,08,13,7.90
2015,04,19,08,14,8.00
2015,04,19,08,15,8.10
2015,04,19,08,16,8.20
2015,04,19,08,17,8.40
2015,04,19,08,18,8.60
2015,04,19,08,19,8.70
2015,04,19,08,20,8.80
2015,04,19,08,21,8.80
2015,04,19,08,22,8.80
2015,04,19,08,23,8.80
2015,04,19,08,24,8.80
2015,04,19,08,25,8.80
2015,04,19,08,26,8.80
2015,04,19,08,27,8.90
2015,04,19,08,28,8.90
2015,04,19,08,29,8.90
2015,04,19,08,30,9.00
2015,04,19,08,31,9.00
2015,04,19,08,32,9.00
2015,04,19,08,33,9.00
2015,04,19,08,34,8.90
2015,04,19,08,35,8.90
2015,04,19,08,36,8.80
2015,04,19,08,37,8.80
2015,04,19,08,38,8.80
2015,04,19,08,39,8.70
2015,04,19,08,40,8.70
2015,04,19,08,41,8.60
2015,04,19,08,42,8.60
2015,04,19,08,43,8.60
2015,04,19,08,44,8.50
2015,04,19,08,45,8.40
2015,04,19,08,46,8.40
2015,04,19,08,47,8.40
2015,04,19,08,48,8.30
2015,04,19,08,49,8.30
2015,04,19,08,50,8.30
2015,04,19,08,51,8.30
2015,04,19,08,52,8.20
2015,04,19,08,53,8.20
2015,04,19,08,54,8.20
2015,04,19,08,55,8.10
2015,04,19,08,56,8.10
2015,04,19,08,57,8.10
2015,04,19,08,58,8.00
2015,04,19,08,59,8.00
2015,04,19,09,00,7.90
2015,04,19,09,01,7.90
2015,04,19,09,02,7.90
2015,04,19,09,03,7.90
2015,04,19,09,04,7.90
2015,04,19,09,05,7.90
2015,04,19,09,06,7.90
2015,04,19,09,07,7.90
2015,04,19,09,08,7.90
2015,04,19,09,09,7.90
2015,04,19,09,10,7.90
2015,04,19,09,11,7.90
2015,04,19,09,12,7.90
2015,04,19,09,13,7.90
2015,04,19,09,14,7.90
2015,04,19,09,15,7.90
2015,04,19,09,16,8.00
2015,04,19,09,17,8.00
2015,04,19,09,18,8.10
2015,04,19,09,19,8.10
2015,04,19,09,20,8.10
2015,04,19,09,21,8.20
2015,04,19,09,22,8.20
2015,04,19,09,23,8.20
2015,04,19,09,24,8.20
2015,04,19,09,25,8.30
2015,04,19,09,26,8.30
2015,04,19,09,27,8.30
2015,04,19,09,28,8.30
2015,04,19,09,29,8.40
2015,04,19,09,30,8.40
2015,04,19,09,31,8.40
2015,04,19,09,32,8.50
2015,04,19,09,33,8.50
2015,04,19,09,34,8.60
2015,04,19,09,35,8.60
2015,04,19,09,36,8.60
2015,04,19,09,37,8.70
2015,04,19,09,38,8.70
2015,04,19,09,39,8.70
2015,04,19,09,40,8.70
2015,04,19,09,41,8.70
2015,04,19,09,42,8.70
2015,04,19,09,43,8.80
2015,04,19,09,44,8.80
2015,04,19,09,45,8.80
2015,04,19,09,46,8.80
2015,04,19,09,47,8.90
2015,04,19,09,48,8.90
2015,04,19,09,49,8.90
2015,04,19,09,50,8.90
2015,04,19,09,51,8.90
2015,04,19,09,52,9.00
2015,04,19,09,53,9.00
2015,04,19,09,54,9.10
2015,04,19,09,55,9.10
2015,04,19,09,56,9.10
2015,04,19,09,57,9.20
2015,04,19,09,58,9.30
2015,04,19,09,59,9.30
2015,04,19,10,00,9.40
2015,04,19,10,01,9.50
2015,04,19,10,02,9.50
2015,04,19,10,03,9.60
2015,04,19,10,04,9.70
2015,04,19,10,05,9.70
2015,04,19,10,06,9.80
2015,04,19,10,07,9.90
2015,04,19,10,08,9.90
2015,04,19,10,09,10.00
2015,04,19,10,10,10.00
2015,04,19,10,11,10.10
2015,04,19,10,12,10.10
2015,04,19,10,13,10.20
2015,04,19,10,14,10.30
2015,04,19,10,15,10.30
2015,04,19,10,16,10.40
2015,04,19,10,17,10.50
2015,04,19,10,18,10.50
2015,04,19,10,19,10.60
2015,04,19,10,20,10.70
2015,04,19,10,21,10.70
2015,04,19,10,22,10.80
2015,04,19,10,23,10.90
2015,04,19,10,24,10.90
2015,04,19,10,25,11.00
2015,04,19,10,26,11.00
2015,04,19,10,27,11.10
2015,04,19,10,28,11.10
2015,04,19,10,29,11.20
2015,04,19,10,30,11.20
2015,04,19,10,31,11.20
2015,04,19,10,32,11.20
2015,04,19,10,33,11.30
2015,04,19,10,34,11.30
2015,04,19,10,35,11.40
2015,04,19,10,36,11.50
2015,04,19,10,37,11.50
2015,04,19,10,38,11.60
2015,04,19,10,39,11.60
2015,04,19,10,40,11.70
2015,04,19,10,41,11.80
2015,04,19,10,42,11.90
2015,04,19,10,43,12.00
2015,04,19,10,44,12.20
2015,04,19,10,45,12.30
2015,04,19,10,46,12.40
2015,04,19,10,47,12.50
2015,04,19,10,48,12.60
2015,04,19,10,49,12.70
2015,04,19,10,50,12.80
2015,04,19,10,51,12.80
2015,04,19,10,52,12.90
2015,04,19,10,53,13.00
2015,04,19,10,54,13.00
2015,04,19,10,55,13.10
2015,04,19,10,56,13.20
2015,04,19,10,57,13.30
2015,04,19,10,58,13.40
2015,04,19,10,59,13.40
2015,04,19,11,00,13.60
2015,04,19,11,01,13.60
2015,04,19,11,02,13.70
2015,04,19,11,03,13.80
2015,04,19,11,04,13.90
2015,04,19,11,05,13.90
2015,04,19,11,06,14.00
2015,04,19,11,07,14.10
2015,04,19,11,08,14.00
2015,04,19,11,09,14.00
2015,04,19,11,10,13.90
2015,04,19,11,11,13.90
2015,04,19,11,12,14.00
2015,04,19,11,13,14.00
2015,04,19,11,14,14.10
2015,04,19,11,15,14.20
2015,04,19,11,16,14.20
2015,04,19,11,17,14.30
2015,04,19,11,18,14.30
2015,04,19,11,19,14.40
2015,04,19,11,20,14.40
2015,04,19,11,21,14.40
2015,04,19,11,22,14.50
2015,04,19,11,23,14.60
2015,04,19,11,24,14.60
2015,04,19,11,25,14.60
2015,04,19,11,26,14.60
2015,04,19,11,27,14.70
2015,04,19,11,28,14.70
2015,04,19,11,29,14.70
2015,04,19,11,30,14.70
2015,04,19,11,31,14.70
2015,04,19,11,32,14.60
2015,04,19,11,33,14.60
2015,04,19,11,34,14.60
2015,04,19,11,35,14.60
2015,04,19,11,36,14.60
2015,04,19,11,37,14.70
2015,04,19,11,38,14.70
2015,04,19,11,39,14.80
2015,04,19,11,40,14.80
2015,04,19,11,41,14.80
2015,04,19,11,42,14.80
2015,04,19,11,43,14.80
2015,04,19,11,44,14.80
2015,04,19,11,45,14.80
2015,04,19,11,46,14.80
2015,04,19,11,47,14.80
2015,04,19,11,48,14.70
2015,04,19,11,49,14.60
2015,04,19,11,50,14.60
2015,04,19,11,51,14.50
2015,04,19,11,52,14.50
2015,04,19,11,53,14.50
2015,04,19,11,54,14.50
2015,04,19,11,55,14.60
2015,04,19,11,56,14.60
2015,04,19,11,57,14.70
2015,04,19,11,58,14.70
2015,04,19,11,59,14.80
2015,04,19,12,00,14.90
2015,04,19,12,01,14.90
2015,04,19,12,02,15.00
2015,04,19,12,03,15.10
2015,04,19,12,04,15.20
2015,04,19,12,05,15.30
2015,04,19,12,06,15.30
2015,04,19,12,07,15.40
2015,04,19,12,08,15.50
2015,04,19,12,09,15.60
2015,04,19,12,10,15.70
2015,04,19,12,11,15.70
2015,04,19,12,12,15.80
2015,04,19,12,13,15.90
2015,04,19,12,14,16.00
2015,04,19,12,15,16.10
2015,04,19,12,16,16.10
2015,04,19,12,17,16.20
2015,04,19,12,18,16.30
2015,04,19,12,19,16.30
2015,04,19,12,20,16.40
2015,04,19,12,21,16.50
2015,04,19,12,22,16.50
2015,04,19,12,23,16.60
2015,04,19,12,24,16.60
2015,04,19,12,25,16.60
2015,04,19,12,26,16.60
2015,04,19,12,27,16.60
2015,04,19,12,28,16.60
2015,04,19,12,29,16.60
2015,04,19,12,30,16.50
2015,04,19,12,31,16.40
2015,04,19,12,32,16.30
2015,04,19,12,33,16.20
2015,04,19,12,34,16.10
2015,04,19,12,35,16.10
2015,04,19,12,36,16.00
2015,04,19,12,37,16.00
2015,04,19,12,38,16.00
2015,04,19,12,39,16.00
2015,04,19,12,40,16.00
2015,04,19,12,41,16.00
2015,04,19,12,42,16.00
2015,04,19,12,43,16.00
2015,04,19,12,44,16.10
2015,04,19,12,45,16.10
2015,04,19,12,46,16.20
2015,04,19,12,47,16.20
2015,04,19,12,48,16.30
2015,04,19,12,49,16.40
2015,04,19,12,50,16.50
2015,04,19,12,51,16.60
2015,04,19,12,52,16.70
2015,04,19,12,53,16.80
2015,04,19,12,54,16.90
2015,04,19,12,55,16.90
2015,04,19,12,56,17.00
2015,04,19,12,57,17.10
2015,04,19,12,58,17.10
2015,04,19,12,59,17.20
2015,04,19,13,00,17.20
2015,04,19,13,01,17.20
2015,04,19,13,02,17.30
2015,04,19,13,03,17.30
2015,04,19,13,04,17.30
2015,04,19,13,05,17.30
2015,04,19,13,06,17.30
2015,04,19,13,07,17.30
2015,04,19,13,08,17.30
2015,04,19,13,09,17.30
2015,04,19,13,10,17.20
2015,04,19,13,11,17.20
2015,04,19,13,12,17.10
2015,04,19,13,13,17.10
2015,04,19,13,14,17.00
2015,04,19,13,15,16.90
2015,04,19,13,16,16.80
2015,04,19,13,17,16.70
2015,04,19,13,18,16.70
2015,04,19,13,19,16.70
2015,04,19,13,20,16.70
2015,04,19,13,21,16.80
2015,04,19,13,22,16.80
2015,04,19,13,23,16.90
2015,04,19,13,24,17.00
2015,04,19,13,25,17.00
2015,04,19,13,26,17.10
2015,04,19,13,27,17.20
2015,04,19,13,28,17.30
2015,04,19,13,29,17.40
2015,04,19,13,30,17.50
2015,04,19,13,31,17.50
2015,04,19,13,32,17.70
2015,04,19,13,33,17.70
2015,04,19,13,34,17.80
2015,04,19,13,35,17.90
2015,04,19,13,36,18.00
2015,04,19,13,37,18.10
2015,04,19,13,38,18.20
2015,04,19,13,39,18.20
2015,04,19,13,40,18.20
2015,04,19,13,41,18.20
2015,04,19,13,42,18.30
2015,04,19,13,43,18.30
2015,04,19,13,44,18.30
2015,04,19,13,45,18.30
2015,04,19,13,46,18.30
2015,04,19,13,47,18.30
2015,04,19,13,48,18.30
2015,04,19,13,49,18.30
2015,04,19,13,50,18.30
2015,04,19,13,51,18.30
2015,04,19,13,52,18.30
2015,04,19,13,53,18.30
2015,04,19,13,54,18.30
2015,04,19,13,55,18.30
2015,04,19,13,56,18.30
2015,04,19,13,57,18.30
2015,04,19,13,58,18.30
2015,04,19,13,59,18.30
2015,04,19,14,00,18.30
2015,04,19,14,01,18.30
2015,04,19,14,02,18.30
2015,04,19,14,03,18.30
2015,04,19,14,04,18.30
2015,04,19,14,05,18.30
2015,04,19,14,06,18.30
2015,04,19,14,07,18.30
2015,04,19,14,08,18.30
2015,04,19,14,09,18.30
2015,04,19,14,10,18.30
2015,04,19,14,11,18.30
2015,04,19,14,12,18.40
2015,04,19,14,13,18.50
2015,04,19,14,14,18.50
2015,04,19,14,15,18.50
2015,04,19,14,16,18.50
2015,04,19,14,17,18.50
2015,04,19,14,18,18.50
2015,04,19,14,19,18.40
2015,04,19,14,20,18.40
2015,04,19,14,21,18.40
2015,04,19,14,22,18.40
2015,04,19,14,23,18.50
2015,04,19,14,24,18.50
2015,04,19,14,25,18.40
2015,04,19,14,26,18.40
2015,04,19,14,27,18.40
2015,04,19,14,28,18.50
2015,04,19,14,29,18.50
2015,04,19,14,30,18.50
2015,04,19,14,31,18.60
2015,04,19,14,32,18.50
2015,04,19,14,33,18.40
2015,04,19,14,34,18.30
2015,04,19,14,35,18.30
2015,04,19,14,36,18.30
2015,04,19,14,37,18.30
2015,04,19,14,38,18.30
2015,04,19,14,39,18.30
2015,04,19,14,40,18.40
2015,04,19,14,41,18.40
2015,04,19,14,42,18.50
2015,04,19,14,43,18.50
2015,04,19,14,44,18.50
2015,04,19,14,45,18.50
2015,04,19,14,46,18.50
2015,04,19,14,47,18.50
2015,04,19,14,48,18.50
2015,04,19,14,49,18.50
2015,04,19,14,50,18.50
2015,04,19,14,51,18.60
2015,04,19,14,52,18.60
2015,04,19,14,53,18.70
2015,04,19,14,54,18.80
2015,04,19,14,55,18.80
2015,04,19,14,56,18.80
2015,04,19,14,57,18.80
2015,04,19,14,58,18.80
2015,04,19,14,59,18.80
2015,04,19,15,00,18.80
2015,04,19,15,01,18.80
2015,04,19,15,02,18.80
2015,04,19,15,03,18.80
2015,04,19,15,04,18.70
2015,04,19,15,05,18.70
2015,04,19,15,06,18.70
2015,04,19,15,07,18.70
2015,04,19,15,08,18.70
2015,04,19,15,09,18.70
2015,04,19,15,10,18.70
2015,04,19,15,11,18.60
2015,04,19,15,12,18.60
2015,04,19,15,13,18.50
2015,04,19,15,14,18.50
2015,04,19,15,15,18.50
2015,04,19,15,16,18.40
2015,04,19,15,17,18.40
2015,04,19,15,18,18.30
2015,04,19,15,19,18.30
2015,04,19,15,20,18.30
2015,04,19,15,21,18.40
2015,04,19,15,22,18.40
2015,04,19,15,23,18.50
2015,04,19,15,24,18.50
2015,04,19,15,25,18.50
2015,04,19,15,26,18.60
2015,04,19,15,27,18.60
2015,04,19,15,28,18.50
2015,04,19,15,29,18.50
2015,04,19,15,30,18.50
2015,04,19,15,31,18.50
2015,04,19,15,32,18.40
2015,04,19,15,33,18.40
2015,04,19,15,34,18.40
2015,04,19,15,35,18.40
2015,04,19,15,36,18.30
2015,04,19,15,37,18.30
2015,04,19,15,38,18.30
2015,04,19,15,39,18.20
2015,04,19,15,40,18.20
2015,04,19,15,41,18.20
2015,04,19,15,42,18.20
2015,04,19,15,43,18.20
2015,04,19,15,44,18.30
2015,04,19,15,45,18.30
2015,04,19,15,46,18.40
2015,04,19,15,47,18.40
2015,04,19,15,48,18.50
2015,04,19,15,49,18.50
2015,04,19,15,50,18.50
2015,04,19,15,51,18.50
2015,04,19,15,52,18.40
2015,04,19,15,53,18.40
2015,04,19,15,54,18.50
2015,04,19,15,55,18.50
2015,04,19,15,56,18.50
2015,04,19,15,57,18.50
2015,04,19,15,58,18.50
2015,04,19,15,59,18.60
2015,04,19,16,00,18.60
2015,04,19,16,01,18.60
2015,04,19,16,02,18.60
2015,04,19,16,03,18.60
2015,04,19,16,04,18.60
2015,04,19,16,05,18.70
2015,04,19,16,06,18.70
2015,04,19,16,07,18.80
2015,04,19,16,08,18.80
2015,04,19,16,09,18.80
2015,04,19,16,10,18.90
2015,04,19,16,11,18.90
2015,04,19,16,12,18.80
2015,04,19,16,13,18.90
2015,04,19,16,14,18.90
2015,04,19,16,15,18.90
2015,04,19,16,16,19.00
2015,04,19,16,17,19.00
2015,04,19,16,18,19.00
2015,04,19,16,19,19.00
2015,04,19,16,20,19.00
2015,04,19,16,21,19.10
2015,04,19,16,22,19.10
2015,04,19,16,23,19.10
2015,04,19,16,24,19.10
2015,04,19,16,25,19.20
2015,04,19,16,26,19.20
2015,04,19,16,27,19.20
2015,04,19,16,28,19.10
2015,04,19,16,29,19.10
2015,04,19,16,30,19.00
2015,04,19,16,31,19.00
2015,04,19,16,32,18.90
2015,04,19,16,33,18.90
2015,04,19,16,34,18.80
2015,04,19,16,35,18.80
2015,04,19,16,36,18.80
2015,04,19,16,37,18.80
2015,04,19,16,38,18.80
2015,04,19,16,39,18.90
2015,04,19,16,40,18.90
2015,04,19,16,41,18.90
2015,04,19,16,42,18.90
2015,04,19,16,43,18.90
2015,04,19,16,44,18.90
2015,04,19,16,45,18.90
2015,04,19,16,46,18.90
2015,04,19,16,47,18.90
2015,04,19,16,48,18.90
2015,04,19,16,49,18.90
2015,04,19,16,50,18.90
2015,04,19,16,51,18.90
2015,04,19,16,52,18.90
2015,04,19,16,53,18.90
2015,04,19,16,54,18.90
2015,04,19,16,55,18.90
2015,04,19,16,56,18.90
2015,04,19,16,57,18.90
2015,04,19,16,58,18.90
2015,04,19,16,59,19.00
2015,04,19,17,00,19.00
2015,04,19,17,01,18.90
2015,04,19,17,02,18.90
2015,04,19,17,03,18.90
2015,04,19,17,04,19.00
2015,04,19,17,05,19.00
2015,04,19,17,06,19.10
2015,04,19,17,07,19.10
2015,04,19,17,08,19.10
2015,04,19,17,09,19.10
2015,04,19,17,10,19.10
2015,04,19,17,11,19.00
2015,04,19,17,12,19.00
2015,04,19,17,13,18.90
2015,04,19,17,14,19.00
2015,04,19,17,15,19.00
2015,04,19,17,16,19.00
2015,04,19,17,17,19.00
2015,04,19,17,18,19.00
2015,04,19,17,19,19.00
2015,04,19,17,20,19.00
2015,04,19,17,21,18.90
2015,04,19,17,22,18.90
2015,04,19,17,23,18.80
2015,04,19,17,24,18.80
2015,04,19,17,25,18.80
2015,04,19,17,26,18.70
2015,04,19,17,27,18.70
2015,04,19,17,28,18.70
2015,04,19,17,29,18.70
2015,04,19,17,30,18.70
2015,04,19,17,31,18.70
2015,04,19,17,32,18.70
2015,04,19,17,33,18.70
2015,04,19,17,34,18.70
2015,04,19,17,35,18.70
2015,04,19,17,36,18.60
2015,04,19,17,37,18.60
2015,04,19,17,38,18.50
2015,04,19,17,39,18.50
2015,04,19,17,40,18.50
2015,04,19,17,41,18.50
2015,04,19,17,42,18.50
2015,04,19,17,43,18.60
2015,04,19,17,44,18.60
2015,04,19,17,45,18.60
2015,04,19,17,46,18.60
2015,04,19,17,47,18.60
2015,04,19,17,48,18.60
2015,04,19,17,49,18.50